Regional Weather Roundup
Issued by NWS Charleston, SC

Current Version | Previous Version | Text Only | Print | Product List | Glossary Off
Versions: 1 2 3 4 5 6 7 8 9 10 11 12 13 14 15 16 17 18 19 20 21 22 23 24 25 26 27 28 29 30 31 32 33 34 35 36 37 38 39 40 41 42 43 44 45 46 47 48 49 50

000
ASUS42 KCHS 050711
RWRCHS

REGIONAL WEATHER ROUNDUP
NATIONAL WEATHER SERVICE CHARLESTON SC
200 AM EST THU MAR 05 2015

NOTE: "FAIR" INDICATES FEW OR NO CLOUDS BELOW 12,000 FEET WITH NO
SIGNIFICANT WEATHER AND/OR OBSTRUCTIONS TO VISIBILITY.

NOT ALL STATIONS ARE QUALITY CONTROLLED BY THE NATIONAL
WEATHER SERVICE. USE DATA WITH CAUTION...ESPECIALLY
DEWPOINT OBSERVATIONS.

SCZ027-030-031-034>040-042>050-050800-
...SOUTHEAST SOUTH CAROLINA...

CITY           SKY/WX    TMP DP  RH WIND       PRES   REMARKS
N CHARLESTON   PTCLDY    61  59  93 S9        30.00F
WATERFRONT PRK   N/A     63 N/A N/A SW13        N/A
MOUNT PLEASANT FAIR      64  61  88 SW8       30.01S
PINOPOLIS      NOT AVBL
MONCKS CORNER  FAIR      66  61  82 S6        29.98F
SUMMERVILLE    FAIR      63  63 100 S7        29.99F
BEAUFORT MCAS  CLEAR     60  58  92 S5        30.00F
BEAUFORT ARPT  FAIR      59  59 100 S6        30.01S
HILTON HEAD IS CLEAR     61  57  88 S5        30.03F
WALTERBORO     SUNNY     64  63  94 S8        29.99F
ALLENDALE      FAIR      68  63  83 VRB5      29.97S

...SOUTHERN MIDLANDS AND PEE DEE...

CITY           SKY/WX    TMP DP  RH WIND       PRES   REMARKS
GEORGETOWN     NOT AVBL
KINGSTREE      NOT AVBL
ORANGEBURG     CLEAR     67  59  75 SW14      29.96S
BARNWELL       FAIR      66  61  82 SW8       29.98R
AIKEN          FAIR      66  59  77 SW10G16   29.98S
MANNING        FAIR      68  59  73 S9        29.96S
COLUMBIA       PTCLDY    66  57  72 SW9       29.93S
SUMTER         CLEAR     65  60  85 S13       29.92S
FLORENCE       CLEAR     65  60  84 SW12      29.94S
MYRTLE BEACH   CLEAR     64  61  88 S10       30.00F
N MYRTLE BEACH FOG       59  58  96 SW20      29.98S VSB 1/4

$$

GAZ063-065-086>088-099>101-113>116-118-119-134>141-150-050800-
...SOUTHEAST GEORGIA...

CITY           SKY/WX    TMP DP  RH WIND       PRES   REMARKS
SAVANNAH ARPT  CLEAR     62  59  90 S7        30.02S
HUNTER AAF     PTCLDY    60  60 100 S5        30.00F
FORT STEWART   CLEAR     67  64  87 VRB7      30.00F
STATESBORO     CLEAR     67  64  89 SW8       29.99F
SYLVANIA       SUNNY     67  64  90 SW8       29.99F
CLAXTON        FAIR      68  64  88 SW6       30.01S

...CSRA...CENTRAL AND FAR SOUTHEAST GEORGIA...

CITY           SKY/WX    TMP DP  RH WIND       PRES   REMARKS
THOMSON        CLOUDY    69  65  86 S8        29.99S
AUGUSTA-BUSH   PTCLDY    66  60  81 SW8       29.96R
AUGUSTA-DANIEL MOCLDY    69  61  75 SW10      29.96S
SWAINSBORO     CLOUDY    68  64  88 SW9       29.99F
VIDALIA        PTCLDY    68  64  88 SW8       30.01S
EASTMAN        CLOUDY    69  69 100 SW8       30.02S
HAZLEHURST     FAIR      69  67  94 SW5       30.00F
ALMA           MOCLDY    66  64  93 CALM      30.02F
WAYCROSS       CLOUDY    72  69  91 W8        30.03F
JESUP          PTSUNNY   70  66  88 W5        30.03S
BAXLEY         CLOUDY    68  64  88 CALM      30.02F
BRUNSWICK      CLEAR     59  55  88 CALM      30.05S
SAINT SIMONS   CLEAR     59  57  93 CALM      30.04S

$$

SCZ027-028-034-036>038-045-046-048>050-GAZ119-141-050800-
...LAKE AND SUPPLEMENTAL COASTAL OBSERVATIONS...

STATION/POSITION TIME  TEMP    WIND        PRES    WAVE   SWELL
                       AIR SEA DIR/SP/G            HT/PER HT/PER/DIR
                 (UTC) (F)     (DEG/KT/KT) (MB)    (FT/S) (FT/S/D)
UPR LAKE MARION  NOT AVBL
WINYAH BAY       NOT AVBL
LAKE MURRAY      0600   61     210/ 10/ 12 1012.9S
ACE BASIN NERRS  NOT AVBL
FORT PULASKI     0600   58 52  190/  5/  9 1017.4F
SAPELO ISLAND    0600   60     160/  7     1017.0S

$$

ANZ835-935-AMZ111-154-330-350-352-354-370-450-454-472-050800-
...C-MAN AND BUOY OBSERVATIONS...

STATION/POSITION TIME  TEMP    WIND        PRES    WAVE   SWELL
                       AIR SEA DIR/SP/G            HT/PER HT/PER/DIR
                 (UTC) (F)     (DEG/KT/KT) (MB)    (FT/S) (FT/S/D)
BUOY 41004       0650   70 69  210/ 17/ 19 1016.0F   6/ 7   3/ 9
BUOY 41008       0650   58 53  200/ 10/ 10 1017.3F   4/ 5   3/120/ 5
FOLLY BEACH CMAN 0700   53     220/  9/ 10 1016.7F
CAPERS NEARSHORE 0600   52     230/  8/ 10   N/A
FRIPP NEARSHORE  0600   54     290/ 12/ 14 1016.8F


STATION/POSITION TIME  TEMP    WIND        PRES    WAVE   SWELL
                       AIR SEA DIR/SP/G            HT/PER HT/PER/DIR
                 (UTC) (F)     (DEG/KT/KT) (MB)    (FT/S) (FT/S/D)
5E ST. MARYS GA  0621      55                N/A     3/ 5
FRYING PAN BUOY  0650   68 62  210/ 16/ 19 1016.6R   8/ 7   3/150/10
BUOY 41025       NOT AVBL
CAPE LOOKOUT NC  0600   59     220/ 11/ 16 1015.5F
BUOY 41002       0650   73 73  210/ 21/ 25 1020.1F   6/11   3/110/11
BUOY 41010       0620   74 75  170/ 17/ 21 1019.9F
ST AUGUSTINE FL  0700   60     170/  9/  9 1018.6F


$$



USA.gov is the U.S. government's official web portal to all federal, state and local government web resources and services.